Lewistown, MT

6:11 PM MST on February 27, 2017 (GMT -0700)
Lewistown Municipal

Weather History for KLWT - March, 2013

Change the Weather History Date:

Saturday, March 2, 2013

  Actual Average Record
Temperature  
Mean Temperature 43 °F 29 °F  
Max Temperature 52 °F 40 °F 71 °F (1905)
Min Temperature 34 °F 18 °F -23 °F (1976)
Degree Days  
Heating Degree Days 22 36  
Month to date heating degree days 51 73  
Since 1 July heating degree days 5559 5877  
Cooling Degree Days 0 0  
Month to date cooling degree days 0 0  
Year to date cooling degree days 0 0  
Moisture  
Dew Point 29 °F    
Average Humidity 61    
Maximum Humidity 76    
Minimum Humidity 46    
Precipitation  
Precipitation T in 0.02 in 0.30 in (1904)
Month to date precipitation T 0.04  
Year to date precipitation 1.80 1.05  
Snow  
Snow 0.00 in - - ()
Snow Depth 0.00 in    
Sea Level Pressure  
Sea Level Pressure 30.06 in    
Wind  
Wind Speed 9 mph (SW)    
Max Wind Speed 20 mph    
Max Gust Speed 24 mph    
Visibility 10 miles    
Events Rain    
T = Trace of Precipitation, MM = Missing Value Source: NWS Daily Summary

Daily Weather History Graph

Daily Weather History Graph

Search for Another Location

Airport or City:

Trip Planner

Search our weather history database for the weather conditions in past years. The results will help you decide how hot, cold, wet, or windy it might be!

Date:

Astronomy

Mar. 02, 2013 Rise Set
Actual Time 6:55 AM MST 6:05 PM MST
Civil Twilight 6:24 AM MST 6:35 PM MST
Nautical Twilight 5:49 AM MST 7:11 PM MST
Astronomical Twilight 5:14 AM MST 7:46 PM MST
Moon No Moon Rise 9:02 AM MST (3/2)
Length of Visible Light 12h 11m
Length of Day
11h 09m
Waning Gibbous, 73% of the Moon is Illuminated
Mar 2
Waning Gibbous
Mar 4
Last Quarter
Mar 11
New
Mar 19
First Quarter
Mar 27
Full

Hourly Weather History & Observations

Time (MST) Temp. Windchill Dew Point Humidity Pressure Visibility Wind Dir Wind Speed Gust Speed Precip Events Conditions
12:54 AM 37.0 °F 31.6 °F 30.0 °F 76% 30.19 in 10.0 mi SW 6.9 mph - N/A   Clear
1:54 AM 37.0 °F 28.5 °F 30.0 °F 76% 30.20 in 10.0 mi SW 13.8 mph - N/A   Clear
2:54 AM 37.9 °F 28.9 °F 30.0 °F 73% 30.18 in 10.0 mi SW 16.1 mph - N/A   Clear
3:54 AM 37.0 °F 29.8 °F 28.9 °F 73% 30.17 in 10.0 mi SW 10.4 mph - N/A   Mostly Cloudy
5:54 AM 37.0 °F 29.3 °F 28.9 °F 73% 30.18 in 10.0 mi WSW 11.5 mph - N/A   Partly Cloudy
6:54 AM 35.1 °F 26.9 °F 28.0 °F 76% 30.19 in 10.0 mi SW 11.5 mph - N/A   Clear
7:54 AM 37.0 °F 29.3 °F 28.9 °F 73% 30.18 in 10.0 mi SW 11.5 mph - N/A   Clear
8:54 AM 39.9 °F 34.5 °F 30.0 °F 68% 30.16 in 10.0 mi WSW 8.1 mph - N/A   Clear
9:54 AM 45.0 °F 38.2 °F 30.9 °F 58% 30.11 in 10.0 mi WSW 15.0 mph - N/A   Clear
10:54 AM 46.9 °F - 30.9 °F 54% 30.10 in 10.0 mi WSW 18.4 mph - N/A   Clear
11:54 AM 50.0 °F - 30.0 °F 46% 30.09 in 10.0 mi WNW 6.9 mph - N/A   Clear
12:54 PM 45.0 °F 39.7 °F 28.9 °F 53% 30.09 in 10.0 mi West 10.4 mph - N/A   Partly Cloudy
1:54 PM 42.1 °F 34.9 °F 30.0 °F 62% 30.08 in 10.0 mi SW 13.8 mph - N/A   Overcast
2:54 PM 42.1 °F 37.1 °F 30.0 °F 62% 30.06 in 10.0 mi SSW 8.1 mph - N/A   Mostly Cloudy
3:54 PM 42.1 °F 36.1 °F 28.9 °F 60% 30.04 in 10.0 mi SSW 10.4 mph - N/A   Overcast
4:54 PM 41.0 °F 35.8 °F 28.9 °F 62% 30.03 in 10.0 mi South 8.1 mph - N/A   Overcast
5:54 PM 41.0 °F 38.0 °F 28.9 °F 62% 29.99 in 10.0 mi SE 4.6 mph - N/A   Overcast
6:54 PM 39.0 °F 34.8 °F 28.9 °F 67% 29.99 in 10.0 mi ESE 5.8 mph - N/A   Overcast
7:54 PM 42.1 °F 38.4 °F 28.0 °F 58% 29.95 in 10.0 mi ENE 5.8 mph - N/A   Overcast
8:54 PM 50.0 °F - 28.0 °F 43% 29.91 in 10.0 mi West 6.9 mph 24.2 mph 0.00 in Rain Light Rain
9:54 PM 43.0 °F 40.3 °F 30.0 °F 60% 29.88 in 10.0 mi NNW 4.6 mph - 0.00 in   Overcast
10:54 PM 39.9 °F 37.8 °F 28.9 °F 65% 29.86 in 10.0 mi South 3.5 mph - N/A   Overcast
11:54 PM 37.9 °F - 30.9 °F 76% 29.83 in 10.0 mi Calm Calm - N/A   Overcast